User: anonymous   Login
Location: Unspecified
(0.0000°N, 0.0000°E)
Time: 03:14:32
(UTC+00:00)
Language:

GOES 3 - Orbit

View from above orbital plane
View from above orbital plane
View from above satellite
View from above satellite

Ground track
Ground track

The orbit data is extracted from the following two-line orbital elements,

1 10953U 78062A   18147.46075178 -.00000197 +00000-0 +00000-0 0  9998
2 10953 012.9492 327.3553 0003322 350.1281 198.6285 00.99359393099350
Epoch (UTC): 27 May 2018 11:03:28
Eccentricity: 0.0003322
inclination: 12.9492°
perigee height: 36030 km
apogee height: 36058 km
right ascension of ascending node: 327.3553°
argument of perigee: 350.1281°
revolutions per day: 0.99359393
mean anomaly at epoch: 198.6285°
orbit number at epoch: 9935

The dashed part of the orbit path shows where the satellite is in the earth's shadow,  

DLR